Regional Weather Roundup
Issued by NWS

Home | Current Version | Previous Version | Text Only | Print | Product List | Glossary On
Versions: 1 2 3 4 5 6 7 8 9 10 11 12 13 14 15 16 17 18 19 20 21 22 23 24 25 26 27 28 29 30 31 32 33 34 35 36 37 38 39 40 41 42 43 44 45 46 47 48 49 50
000
ASUS43 KLSX 200859
RWRMO

WEATHER SUMMARY FOR MISSOURI
NATIONAL WEATHER SERVICE SPRINGFIELD MO
400 AM CDT SAT SEP 20 2014

NOTE: "FAIR" INDICATES FEW OR NO CLOUDS BELOW 12,000 FEET WITH NO
       SIGNIFICANT WEATHER AND/OR OBSTRUCTIONS TO VISIBILITY.
       CURRENT SKY AND/OR WEATHER CONDITIONS ARE NOT AVAILABLE FOR
       CHILLICOTHE AND FARMINGTON.

MOZ001>031-035>038-043-044-053-054-201000-
...NORTHERN AND WESTERN MISSOURI...

CITY           SKY/WX    TMP DP  RH WIND       PRES   REMARKS
KANSAS CTY INT CLEAR     68  66  93 S13       29.93S FOG
KANSAS C DTWN  CLEAR     72  67  84 SW10      29.93S
LEE`S SUMMIT   CLEAR     67  66  97 SW9       29.95F FOG
ST JOSEPH      PTCLDY    68  66  93 S9        29.90S
KIRKSVILLE     PTCLDY    65  63  93 SW8       29.93F

$$
MOZ066>068-077>081-088>096-101>105-201000-
...SOUTHWEST MISSOURI...

CITY           SKY/WX    TMP DP  RH WIND       PRES   REMARKS
SPRINGFIELD    CLEAR     63  62  97 S5        30.01R
JOPLIN         CLEAR     69  67  93 S10       29.99S

$$
MOZ032>034-039>042-045>050-055>058-069>072-201000-
...CENTRAL MISSOURI...

CITY           SKY/WX    TMP DP  RH WIND       PRES   REMARKS
COLUMBIA       CLEAR     62  61  96 S7        29.97F
JEFFERSON CITY CLEAR     64  62  93 E3        29.97S
ROLLA          CLEAR     64  61  90 S8        29.99R FOG
SEDALIA        CLEAR     67  63  87 SW8       29.96S
OSAGE BEACH    CLEAR     64  61  88 S3        29.99R

$$
MOZ051-052-059>065-201000-
...EAST CENTRAL MISSOURI...

CITY           SKY/WX    TMP DP  RH WIND       PRES   REMARKS
ST LOUIS INTL  PTCLDY    67  60  78 S3        29.99S
SPIRIT OF STL  CLEAR     57  55  93 CALM      29.98S FOG
ST CHARLES     CLEAR     56  55  97 NE3       29.99R FOG

$$
MOZ072>076-082>087-097>100-106>115-201000-
...SOUTH CENTRAL AND SOUTHEAST MISSOURI...

CITY           SKY/WX    TMP DP  RH WIND       PRES   REMARKS
CAPE GIRARDEAU CLEAR     58  57  97 CALM      30.01R FOG
FARMINGTON       N/A     57  55  94 CALM      30.04R VSB 3/4
POPLAR BLUFF   CLEAR     60  57  89 CALM      30.00S FOG
WEST PLAINS    CLEAR     65  62  90 CALM      30.04S

$$


USA.gov is the U.S. government's official web portal to all federal, state and local government web resources and services.